TimeEDT,TemperatureF,Dew PointF,Humidity,Sea Level PressureIn,VisibilityMPH,Wind Direction,Wind SpeedMPH,Gust SpeedMPH,PrecipitationIn,Events,Conditions,WindDirDegrees,DateUTC
12:53 AM,69.1,64.0,84,30.16,10.0,NNW,5.8,-,N/A,,Clear,340,2012-10-12 04:53:00
2:53 AM,68.0,64.0,87,30.13,10.0,North,6.9,-,N/A,,Clear,350,2012-10-12 06:53:00
4:53 AM,68.0,63.0,84,30.12,10.0,NNW,5.8,-,N/A,,Clear,340,2012-10-12 08:53:00
5:53 AM,68.0,62.1,81,30.14,10.0,NNW,6.9,-,N/A,,Clear,340,2012-10-12 09:53:00
6:53 AM,66.9,63.0,87,30.15,10.0,NNW,6.9,-,N/A,,Clear,330,2012-10-12 10:53:00
7:53 AM,68.0,64.0,87,30.16,10.0,NNW,4.6,-,N/A,,Clear,330,2012-10-12 11:53:00
8:53 AM,71.1,64.9,81,30.18,10.0,North,8.1,-,N/A,,Mostly Cloudy,350,2012-10-12 12:53:00
9:53 AM,77.0,66.0,69,30.19,10.0,North,8.1,-,N/A,,Clear,10,2012-10-12 13:53:00
10:53 AM,80.1,64.9,60,30.20,10.0,NNE,12.7,-,N/A,,Partly Cloudy,30,2012-10-12 14:53:00
12:53 PM,82.9,60.1,46,30.18,10.0,NE,12.7,-,N/A,,Clear,50,2012-10-12 16:53:00
1:53 PM,84.0,57.0,40,30.15,10.0,NNE,11.5,-,N/A,,Clear,20,2012-10-12 17:53:00
2:53 PM,82.9,57.0,41,30.13,10.0,North,10.4,18.4,N/A,,Clear,10,2012-10-12 18:53:00
3:53 PM,84.0,54.0,35,30.12,10.0,NNE,12.7,-,N/A,,Clear,30,2012-10-12 19:53:00
4:53 PM,82.9,54.0,37,30.13,10.0,NNE,11.5,-,N/A,,Clear,30,2012-10-12 20:53:00
5:53 PM,80.1,54.0,40,30.14,10.0,NNE,12.7,-,N/A,,Clear,30,2012-10-12 21:53:00
6:53 PM,75.0,59.0,57,30.15,10.0,NNE,6.9,-,N/A,,Clear,30,2012-10-12 22:53:00
7:53 PM,73.0,61.0,66,30.15,10.0,NNE,4.6,-,N/A,,Clear,20,2012-10-12 23:53:00
8:53 PM,72.0,62.1,71,30.18,10.0,North,6.9,-,N/A,,Clear,10,2012-10-13 00:53:00
10:53 PM,71.1,62.1,73,30.19,10.0,NE,5.8,-,N/A,,Clear,40,2012-10-13 02:53:00
11:53 PM,70.0,62.1,76,30.18,10.0,NNE,6.9,-,N/A,,Clear,30,2012-10-13 03:53:00